Date,TemperatureHighF,TemperatureAvgF,TemperatureLowF,DewpointHighF,DewpointAvgF,DewpointLowF,HumidityHigh,HumidityAvg,HumidityLow,PressureMaxIn,PressureMinIn,WindSpeedMaxMPH,WindSpeedAvgMPH,GustSpeedMaxMPH,PrecipitationSumIn
2013-1-6,44,44,43,42,41,40,90,89,88,30.19,30.16,4,0,4,0.00
2013-1-7,56,46,35,44,40,32,90,81,60,30.32,30.16,6,0,6,0.00
2013-1-8,60,43,31,47,37,28,93,80,57,30.29,30.19,6,0,6,0.00
2013-1-9,64,48,34,53,42,31,93,82,63,30.20,29.94,12,0,12,0.00
2013-1-10,50,43,33,40,36,29,92,78,60,30.18,30.04,12,2,12,0.08
2013-1-11,49,37,28,38,31,24,92,79,58,30.27,30.14,7,1,8,0.00
2013-1-12,49,37,29,37,31,26,89,79,59,30.28,30.15,4,1,5,0.00
2013-1-13,47,35,26,36,29,23,91,80,58,30.28,30.16,4,0,5,0.00
2013-1-14,48,34,26,34,27,23,90,76,49,30.43,30.22,4,0,4,0.00
2013-1-15,52,37,26,35,28,22,91,73,42,30.52,30.41,4,1,6,0.00
2013-1-17,38,36,35,33,31,30,86,83,80,30.23,30.21,0,0,0,0.00
2013-1-18,64,44,29,45,35,26,92,73,39,30.27,30.15,3,0,5,0.00
2013-1-19,62,43,30,45,35,26,89,75,47,30.30,30.18,4,0,4,0.00
2013-1-20,62,43,30,45,35,26,91,76,48,30.26,30.13,4,0,5,0.00
2013-1-21,65,44,29,45,35,26,92,72,38,30.21,30.11,5,0,6,0.00
2013-1-22,68,46,30,45,36,27,91,71,30,30.18,30.04,4,0,5,0.00
2013-1-23,66,52,37,48,41,32,87,69,39,30.10,30.01,4,0,7,0.00
2013-1-24,60,55,50,54,50,45,91,83,67,30.21,30.04,3,0,6,0.07
2013-1-25,62,55,52,56,52,48,93,89,80,30.21,30.05,4,0,6,0.00
2013-1-26,63,56,52,57,53,44,95,88,74,30.06,29.97,5,1,7,0.00
2013-1-27,54,47,36,44,40,32,88,77,59,30.15,30.00,6,2,10,0.03
2013-1-28,55,43,34,42,36,30,90,77,55,30.28,30.12,4,1,7,0.00
2013-1-29,56,43,32,43,36,29,91,77,56,30.33,30.25,5,1,7,0.00
2013-1-30,62,44,32,45,37,28,92,77,52,30.39,30.29,4,0,5,0.00
2013-1-31,65,47,34,48,39,31,91,76,48,30.31,30.18,4,0,5,0.00
2013-2-1,67,49,34,50,41,30,94,77,50,30.26,30.13,4,0,4,0.00
2013-2-2,63,52,42,52,46,39,90,80,61,30.28,30.20,3,0,4,0.00
2013-2-3,63,50,40,53,45,38,94,84,66,30.24,30.11,4,0,4,0.00
2013-2-4,65,50,38,53,44,36,93,82,63,30.21,30.05,5,0,5,0.00
2013-2-5,66,51,38,54,45,36,94,80,58,30.11,29.98,5,1,7,0.00
2013-2-6,54,47,36,47,42,32,88,83,73,30.21,30.11,5,1,5,0.00
2013-2-7,57,43,30,46,38,28,93,82,61,30.18,30.00,5,1,6,0.00
2013-2-8,49,43,40,45,40,37,92,89,79,30.00,29.92,4,0,6,0.38
2013-2-9,54,43,33,42,36,29,93,78,55,30.12,29.97,5,1,7,0.00
2013-2-10,56,41,29,44,34,26,92,76,48,30.12,30.03,4,0,4,0.00
2013-2-11,59,43,30,43,34,27,91,73,43,30.26,30.08,4,0,5,0.00
2013-2-12,62,45,30,43,34,27,91,70,36,30.37,30.25,4,0,7,0.00
2013-2-13,63,46,30,44,36,27,89,70,41,30.34,30.21,4,1,5,0.00
2013-2-14,65,47,32,46,38,28,92,71,43,30.27,30.15,5,1,8,0.00
2013-2-15,71,51,34,48,39,30,92,69,35,30.29,30.23,4,0,5,0.00
2013-2-16,70,51,35,50,39,31,90,68,31,30.26,30.04,5,0,5,0.00
2013-2-17,68,50,34,49,39,30,90,69,42,30.04,29.95,4,1,6,0.00
2013-2-18,68,51,35,49,40,31,91,70,41,30.04,29.89,4,1,6,0.00
2013-2-19,56,46,39,44,40,36,92,77,57,29.97,29.71,11,1,12,0.40
2013-2-20,51,43,37,43,38,32,92,83,64,30.08,29.79,3,1,4,0.04
2013-2-21,56,46,37,44,37,32,89,74,49,30.18,30.03,5,1,8,0.00
2013-2-22,60,46,32,44,37,29,91,73,50,30.26,30.18,5,1,5,0.00
2013-2-23,61,49,35,45,39,31,93,71,53,30.24,30.07,7,1,9,0.00
2013-2-24,60,46,34,39,34,30,87,65,38,30.27,30.13,8,1,8,0.00
2013-2-25,64,46,31,43,35,27,89,67,36,30.29,30.13,4,1,6,0.00
2013-2-26,63,47,32,44,36,28,90,69,42,30.22,30.11,6,1,8,0.00
2013-2-27,67,49,33,45,36,29,89,66,33,30.35,30.21,4,0,5,0.00
2013-2-28,70,51,35,45,39,30,87,66,38,30.44,30.35,4,1,5,0.00
2013-3-1,74,55,38,49,42,34,88,65,34,30.43,30.23,6,1,6,0.00
2013-3-2,80,60,40,52,44,35,88,60,25,30.28,30.05,5,0,5,0.00
2013-3-3,71,61,52,49,45,40,77,57,40,30.13,29.98,5,1,7,0.00
2013-3-4,70,56,42,52,45,38,91,69,44,30.14,30.00,6,1,6,0.00
2013-3-5,73,57,42,51,44,38,89,64,42,30.07,29.90,5,1,6,0.00
2013-3-6,66,54,46,52,45,38,88,70,49,30.10,29.98,5,1,7,0.03
2013-3-7,62,51,45,48,44,40,88,79,52,30.00,29.84,7,1,9,0.02
2013-3-8,49,46,42,46,43,39,93,90,85,30.05,29.79,4,1,4,0.53
2013-3-9,59,54,45,49,46,42,91,76,61,30.33,30.06,4,1,5,0.01
2013-3-10,68,55,40,49,44,36,89,68,44,30.36,30.24,4,1,5,0.00
2013-3-11,70,58,38,52,47,34,90,69,50,30.27,30.10,3,0,3,0.00
2013-3-12,75,62,41,54,49,38,89,65,46,30.15,30.05,5,0,5,0.00
2013-3-13,82,65,44,58,51,40,89,63,34,30.18,30.04,4,0,4,0.00
2013-3-14,85,64,48,57,53,44,90,68,38,30.12,30.04,2,0,2,0.00
2013-3-15,79,64,52,61,55,48,92,73,51,30.09,29.99,7,1,7,0.00
2013-3-16,79,65,50,59,53,46,89,66,47,30.06,29.94,6,1,6,0.00
2013-3-17,73,58,43,54,46,39,89,67,44,30.10,29.98,9,1,9,0.00
2013-3-18,74,63,40,52,47,36,88,58,40,30.12,30.01,6,1,6,0.00
2013-3-19,76,62,45,52,46,41,85,58,33,30.15,30.03,11,2,11,0.00
2013-3-20,72,62,53,56,51,46,82,68,50,30.14,30.03,7,1,9,0.00
2013-3-21,68,54,49,54,48,43,92,81,55,30.06,29.94,4,0,4,0.00
2013-3-22,68,54,42,45,41,37,87,64,41,30.05,29.96,6,1,6,0.02
2013-3-23,70,53,38,43,38,32,83,59,34,30.13,30.02,4,1,7,0.00
2013-3-24,74,56,39,47,42,34,86,61,35,30.10,29.95,3,1,6,0.00
2013-3-25,78,60,43,51,45,38,85,61,33,30.00,29.88,3,1,6,0.00
2013-3-26,76,60,44,54,46,39,87,64,35,29.97,29.87,4,1,8,0.00
2013-3-27,77,63,47,54,48,42,83,61,35,30.00,29.90,4,1,6,0.00
2013-3-28,76,62,49,58,51,43,84,69,48,30.09,30.00,3,1,6,0.00
2013-3-29,82,64,46,58,50,42,89,64,31,30.10,29.97,4,1,7,0.00
2013-3-30,86,68,52,57,50,46,81,57,28,30.05,29.90,4,1,6,0.00
2013-3-31,77,65,57,56,52,47,90,66,39,30.10,29.98,5,2,8,0.16
2013-4-1,72,62,50,54,48,45,83,64,39,30.16,30.05,4,1,7,0.00
2013-4-2,75,60,46,56,48,41,87,67,39,30.16,30.04,4,1,8,0.00
2013-4-3,81,64,46,57,50,41,88,64,38,30.12,29.96,4,1,7,0.00
2013-4-4,75,65,53,59,53,48,85,68,49,30.14,29.98,4,1,6,0.00
2013-4-5,72,62,53,57,52,46,90,73,52,30.16,30.05,4,1,9,0.00
2013-4-6,75,60,44,56,48,40,88,67,40,30.18,30.04,5,1,11,0.00
2013-4-7,76,62,48,57,50,44,88,65,39,30.12,29.84,5,1,11,0.00
2013-4-8,62,55,47,48,44,38,79,66,50,29.87,29.74,9,2,13,0.00
2013-4-9,71,56,38,46,40,34,86,58,30,30.06,29.87,5,2,11,0.00
2013-4-10,80,63,42,49,42,36,81,51,23,30.16,30.01,4,1,6,0.00
2013-4-11,81,64,47,52,47,41,80,56,32,30.02,29.76,7,2,10,0.00
2013-4-12,84,65,51,55,49,45,81,61,32,29.90,29.77,4,1,6,0.00
2013-4-13,74,58,51,55,48,45,82,73,50,29.86,29.81,4,1,5,0.00
2013-4-15,72,61,47,50,42,30,77,50,29,29.89,29.74,12,3,17,0.00
2013-4-16,66,53,40,44,36,30,76,54,31,30.02,29.89,6,1,10,0.00
2013-4-17,70,55,37,43,35,28,82,52,22,30.19,30.01,5,1,10,0.00
2013-4-18,76,59,39,43,36,32,78,47,21,30.26,30.16,4,1,8,0.00
2013-4-19,82,55,42,46,38,35,80,59,21,30.23,30.01,5,1,6,0.00
2013-4-20,84,71,47,54,49,39,74,47,26,30.05,29.92,5,2,6,0.00
2013-4-21,88,72,49,54,48,43,78,45,24,30.02,29.89,4,1,6,0.00
2013-4-22,90,72,51,56,48,43,78,49,21,29.95,29.78,4,1,8,0.00
2013-4-23,87,70,52,53,46,38,76,47,19,29.92,29.79,4,1,6,0.00
2013-4-24,90,72,53,52,46,39,73,45,19,29.87,29.70,5,2,7,0.00
2013-4-25,81,67,55,56,51,47,74,58,40,30.06,29.87,5,2,8,0.00
2013-4-26,87,69,52,58,51,46,81,56,31,30.18,30.06,4,1,8,0.00
2013-4-27,90,73,52,58,52,46,78,51,29,30.18,30.00,4,1,7,0.00
2013-4-28,94,75,57,62,53,44,75,49,23,30.02,29.82,5,1,8,0.00
2013-4-29,94,77,57,62,53,46,69,46,25,29.87,29.69,5,1,8,0.00
2013-4-30,89,79,57,59,51,43,76,40,22,29.80,29.69,7,2,9,0.00
2013-5-1,90,72,53,54,44,35,73,43,16,30.06,29.80,4,1,8,0.00
2013-5-2,92,74,52,57,44,34,73,40,14,30.17,30.03,4,1,7,0.00
2013-5-3,95,75,52,53,47,42,74,43,18,30.04,29.76,6,1,8,0.00
2013-5-4,94,75,54,55,46,36,75,40,16,29.77,29.52,5,2,8,0.00
2013-5-5,85,70,54,53,47,36,64,45,30,29.84,29.64,9,2,13,0.00
2013-5-6,81,70,60,53,49,46,66,49,33,29.96,29.82,6,2,8,0.00
2013-5-7,72,62,54,57,52,46,89,72,53,30.03,29.96,4,1,7,0.21
2013-5-8,79,66,54,58,54,49,87,68,43,30.09,29.99,7,1,12,0.00
2013-5-9,84,69,54,60,55,49,86,63,39,30.09,30.02,4,1,12,0.00
2013-5-10,90,75,57,62,58,52,83,57,36,30.13,30.01,4,1,6,0.00
2013-5-11,96,80,60,66,60,54,81,53,29,30.10,29.95,4,1,8,0.00
2013-5-12,100,84,64,66,59,53,70,46,24,30.09,29.90,6,2,8,0.00
2013-5-13,100,82,62,64,57,52,74,47,22,30.03,29.84,4,1,8,0.00
2013-5-14,94,79,62,60,53,42,76,45,18,29.93,29.83,6,2,9,0.00
2013-5-15,93,77,60,60,52,44,72,45,22,29.99,29.86,5,2,8,0.00
2013-5-16,80,69,54,56,50,46,77,52,40,30.00,29.89,6,2,9,0.00
2013-5-17,82,71,55,54,48,41,70,46,29,29.99,29.90,6,2,8,0.00
2013-5-18,84,69,49,52,44,36,75,44,21,30.09,29.98,6,2,8,0.00
2013-5-19,89,73,51,56,49,41,71,44,26,30.05,29.90,4,2,7,0.00
2013-5-20,96,85,55,58,49,43,70,31,19,30.00,29.86,4,2,10,0.00
2013-5-21,95,85,57,57,45,28,73,27,11,29.90,29.76,6,3,10,0.00
2013-5-22,76,66,50,48,40,26,65,41,19,29.95,29.81,7,2,10,0.00
2013-5-23,78,62,42,44,36,33,70,41,22,29.94,29.87,5,1,5,0.00
2013-5-24,84,72,45,49,43,35,71,38,22,29.98,29.85,4,2,7,0.00
2013-5-25,86,70,49,50,43,37,73,41,21,29.97,29.89,5,2,8,0.00
2013-5-26,85,74,53,52,48,42,69,42,28,30.06,29.95,6,2,10,0.00
2013-5-27,84,70,54,56,50,45,74,52,32,30.06,29.94,8,2,8,0.00
2013-5-28,84,71,55,61,53,47,79,56,32,29.97,29.81,7,3,12,0.00
2013-5-29,87,74,55,60,51,44,78,48,35,29.91,29.76,8,2,11,0.00
2013-5-30,90,75,54,59,50,43,75,45,26,29.93,29.82,6,2,9,0.00
2013-5-31,94,76,53,56,50,44,74,44,24,29.97,29.85,5,2,9,0.00
2013-6-1,100,82,58,63,54,49,73,42,23,29.89,29.71,4,1,7,0.00
2013-6-2,104,86,61,63,55,43,76,39,16,29.74,29.57,4,1,8,0.00
2013-6-3,97,83,64,60,55,49,61,41,25,29.75,29.65,5,2,8,0.00
2013-6-4,96,80,63,61,56,51,65,46,29,29.86,29.75,5,2,7,0.00
2013-6-5,96,81,63,64,59,55,76,50,31,29.94,29.79,5,1,8,0.00
2013-6-6,100,84,63,66,61,56,79,49,29,29.87,29.74,5,2,8,0.00
2013-6-7,104,91,68,67,64,59,74,44,27,29.81,29.66,4,2,8,0.00
2013-6-8,107,90,71,74,65,62,75,49,25,29.71,29.59,4,1,7,0.00
2013-6-9,102,89,72,63,58,50,52,36,24,29.77,29.65,5,2,8,0.00
2013-6-10,88,76,63,59,54,43,67,49,23,29.90,29.74,9,2,12,0.00
2013-6-11,95,78,62,60,56,52,71,50,27,29.95,29.79,4,1,8,0.00
2013-6-12,97,81,64,63,56,44,77,47,22,29.90,29.81,5,2,8,0.00
2013-6-13,90,82,64,46,42,35,51,26,16,30.03,29.90,5,2,9,0.00
2013-6-14,93,68,57,50,46,40,61,48,17,29.92,29.76,5,1,6,0.00
2013-6-15,96,78,58,51,45,36,64,36,13,29.87,29.79,5,2,5,0.00
2013-6-16,93,77,58,53,48,42,64,38,18,30.02,29.88,7,2,7,0.00
2013-6-17,92,77,59,55,49,44,62,40,22,30.03,29.88,6,2,6,0.00
2013-6-18,87,74,58,55,49,44,71,45,25,29.98,29.82,7,3,7,0.00
2013-6-19,82,70,56,51,47,44,66,46,28,30.01,29.89,7,2,7,0.00
2013-6-20,88,72,53,51,46,42,67,43,22,29.95,29.84,8,2,8,0.00
2013-6-21,90,75,55,52,47,41,66,40,19,29.93,29.82,6,2,6,0.00
2013-6-22,95,84,58,54,48,44,63,32,18,29.91,29.76,5,2,6,0.00
2013-6-23,88,79,60,55,51,43,67,39,26,29.82,29.74,8,3,11,0.00
2013-6-24,87,75,62,62,58,51,71,56,40,29.87,29.78,4,1,8,0.00
2013-6-25,94,80,64,64,60,56,77,53,33,29.97,29.85,5,2,9,0.00
2013-6-26,96,83,68,68,64,60,77,56,35,30.01,29.89,5,2,10,0.00
2013-6-27,100,85,68,68,65,60,76,54,32,30.04,29.92,5,2,7,0.00
2013-6-28,105,89,72,68,65,60,74,48,24,29.98,29.82,5,2,8,0.00
2013-6-29,107,89,74,67,64,60,68,47,23,29.88,29.72,5,2,7,0.00
2013-6-30,108,97,74,68,65,62,68,38,25,29.80,29.67,5,2,8,0.00
2013-7-1,103,88,75,72,66,63,68,50,30,29.82,29.71,4,1,7,0.00
2013-7-2,109,92,75,70,61,51,67,40,17,29.87,29.77,4,1,6,0.00
2013-7-3,105,90,74,71,63,56,60,42,27,29.86,29.68,4,1,6,0.00
2013-7-4,108,92,75,70,67,63,71,47,25,29.73,29.60,5,1,9,0.00
2013-7-5,107,93,78,70,64,57,63,41,24,29.70,29.59,4,1,7,0.00
2013-7-6,100,84,67,60,56,48,65,41,19,29.74,29.64,5,1,5,0.00
2013-7-7,105,91,66,62,55,47,55,32,17,29.78,29.68,4,2,6,0.00
2013-7-8,106,87,64,58,52,46,57,34,17,29.89,29.78,5,2,8,0.00
2013-7-9,98,78,65,62,56,50,64,49,26,29.99,29.85,6,1,8,0.00
2013-7-10,101,86,69,66,60,55,62,44,24,29.92,29.79,5,1,5,0.00
2013-7-11,99,86,76,66,58,50,61,41,20,29.87,29.76,6,2,6,0.00
2013-7-12,91,78,65,56,53,50,58,43,25,29.89,29.77,3,1,5,0.00
2013-7-13,102,83,65,59,54,51,63,41,19,29.91,29.79,4,1,8,0.00
2013-7-14,103,84,64,59,51,43,53,36,14,29.94,29.78,4,1,7,0.00
2013-7-15,101,84,66,56,52,43,54,36,16,29.84,29.69,5,1,7,0.00
2013-7-16,96,80,62,58,51,45,55,39,20,29.92,29.77,6,1,9,0.00
2013-7-17,94,79,62,60,56,52,74,49,27,30.04,29.91,4,2,8,0.00
2013-7-18,99,82,64,61,57,52,72,47,22,30.00,29.83,5,2,8,0.00
2013-7-19,101,88,74,63,59,55,55,40,24,29.88,29.73,4,1,5,0.00
2013-7-20,105,87,69,63,58,50,63,41,18,29.78,29.65,4,1,6,0.00
2013-7-21,92,89,78,64,61,57,51,39,34,29.77,29.71,2,1,3,0.00
2013-7-22,97,85,77,74,66,60,75,54,34,29.88,29.75,5,1,7,0.01
2013-7-23,100,85,73,68,64,58,78,52,27,29.95,29.83,6,2,8,0.00
2013-7-24,101,89,70,65,58,48,69,39,22,29.93,29.80,5,1,8,0.00
2013-7-25,103,88,72,66,62,60,67,45,25,29.91,29.83,4,1,7,0.00
2013-7-26,99,85,74,67,63,59,71,51,31,30.01,29.89,4,1,5,0.00
2013-7-27,102,88,76,66,61,51,70,45,19,29.94,29.74,7,1,8,0.00
2013-7-28,102,87,70,62,58,49,69,42,18,29.80,29.69,6,2,9,0.00
2013-7-29,100,84,68,61,57,50,66,43,20,29.91,29.75,4,1,7,0.00
2013-7-30,96,82,67,63,58,51,71,48,23,30.02,29.90,5,1,7,0.00
2013-7-31,98,82,65,61,55,43,70,45,17,30.02,29.86,6,2,8,0.00
2013-8-1,94,78,62,55,50,41,71,41,18,29.99,29.84,6,2,9,0.00
2013-8-2,95,78,59,54,48,39,65,39,16,29.93,29.81,4,1,7,0.00
2013-8-3,98,78,59,58,50,43,66,42,19,29.92,29.80,4,1,7,0.00
2013-8-4,98,80,61,58,51,44,61,40,17,29.93,29.81,4,1,7,0.00
2013-8-5,97,79,62,60,55,50,66,46,23,29.95,29.82,4,1,8,0.00
2013-8-6,96,80,62,60,55,50,76,48,23,29.94,29.84,5,1,8,0.00
2013-8-7,91,82,63,59,55,51,74,41,27,30.03,29.90,5,2,8,0.00
2013-8-8,90,76,60,60,55,51,77,53,28,29.97,29.82,5,2,9,0.00
2013-8-9,92,76,59,60,54,49,79,51,24,29.90,29.81,4,1,7,0.00
2013-8-10,92,77,61,60,54,49,77,49,24,29.98,29.87,5,1,9,0.00
2013-8-11,94,78,61,62,56,52,74,50,25,29.96,29.82,5,1,8,0.00
2013-8-12,97,79,62,61,56,53,72,49,24,29.93,29.82,5,1,8,0.00
2013-8-13,99,80,63,60,56,53,73,48,22,29.94,29.80,4,1,8,0.00
2013-8-14,101,81,63,60,56,50,71,45,19,29.91,29.77,5,1,8,0.00
2013-8-15,101,81,64,60,55,47,67,45,17,29.90,29.79,6,1,8,0.00
2013-8-16,101,82,66,65,59,53,71,48,22,29.92,29.81,5,1,6,0.00
2013-8-17,102,81,67,64,58,53,74,50,20,29.91,29.74,5,1,8,0.00
2013-8-18,97,85,67,67,60,55,68,45,28,29.85,29.70,3,1,5,0.00
2013-8-19,106,88,72,69,63,53,80,48,24,29.82,29.70,8,2,12,0.00
2013-8-20,104,87,72,65,58,49,53,38,23,29.81,29.69,4,1,8,0.00
2013-8-21,101,83,68,62,54,49,55,39,20,29.86,29.73,4,1,7,0.00
2013-8-22,99,80,63,62,56,51,72,47,22,29.88,29.72,5,1,7,0.00
2013-8-23,95,78,63,61,58,55,75,53,27,29.84,29.70,5,1,7,0.00
2013-8-24,96,78,62,60,55,50,73,49,22,29.82,29.70,5,1,8,0.00
2013-8-25,96,77,62,60,55,50,76,51,25,29.90,29.77,4,1,7,0.00
2013-8-26,94,78,62,63,58,52,74,51,30,29.93,29.76,4,1,7,0.00
2013-8-27,97,81,64,64,60,56,77,51,29,29.83,29.68,4,1,7,0.00
2013-8-28,98,87,67,63,61,58,74,43,29,29.84,29.74,4,2,7,0.00
2013-8-29,98,82,66,65,61,57,77,53,30,29.95,29.84,5,1,7,0.00
2013-8-30,98,83,66,64,61,58,77,50,29,29.97,29.82,4,1,6,0.00
2013-8-31,97,82,71,65,61,54,70,51,25,29.90,29.77,4,1,8,0.00
2013-9-1,98,83,69,65,62,59,75,52,30,29.86,29.75,4,1,7,0.00
2013-9-2,96,83,71,66,63,60,73,53,34,29.88,29.74,4,1,7,0.00
2013-9-3,94,82,73,66,63,59,67,53,39,29.92,29.79,4,1,7,0.00
2013-9-4,95,81,66,65,62,58,75,55,36,29.94,29.80,4,1,7,0.00
2013-9-5,91,74,66,63,59,56,74,61,38,29.91,29.81,2,0,3,0.00
2013-9-6,95,79,64,62,58,53,74,51,33,29.92,29.75,5,1,7,0.00
2013-9-7,101,82,64,65,60,55,79,52,23,29.84,29.71,3,1,5,0.00
2013-9-8,100,81,64,61,56,51,70,46,23,29.80,29.65,4,1,6,0.00
2013-9-9,98,81,66,63,58,54,70,48,24,29.74,29.60,3,1,6,0.00
2013-9-10,101,82,65,60,56,50,73,45,19,29.77,29.65,4,1,6,0.00
2013-9-11,91,76,63,60,55,51,67,50,29,29.91,29.77,4,1,6,0.00
2013-9-12,92,76,62,63,58,54,78,56,32,29.91,29.77,4,1,6,0.00
2013-9-13,95,79,64,63,59,56,76,54,28,29.81,29.64,4,1,7,0.00
2013-9-14,97,81,66,64,60,57,73,53,31,29.71,29.58,4,1,6,0.00
2013-9-15,95,79,64,64,60,56,79,54,30,29.75,29.65,4,1,7,0.00
2013-9-16,93,76,62,61,58,54,76,56,33,29.81,29.66,5,1,7,0.00
2013-9-17,88,74,61,58,54,47,79,53,29,29.78,29.68,6,2,9,0.00
2013-9-18,86,70,55,56,51,46,75,54,30,29.84,29.72,4,1,7,0.00
2013-9-19,92,73,56,57,53,49,77,52,25,29.81,29.66,4,1,7,0.00
2013-9-20,94,76,58,57,52,48,76,48,24,29.76,29.65,6,1,8,0.00
2013-9-21,84,70,58,59,53,48,75,56,35,29.82,29.68,7,2,13,0.00
2013-9-22,77,64,51,54,49,44,79,59,37,29.92,29.82,4,1,9,0.00
2013-9-23,84,68,52,54,50,44,77,56,34,29.96,29.83,3,1,6,0.00
2013-9-24,89,72,54,57,52,47,82,53,28,29.92,29.74,4,1,7,0.00
2013-9-25,75,65,54,52,47,42,75,53,34,29.85,29.64,6,2,10,0.00
2013-9-26,74,61,49,48,44,40,76,55,32,29.78,29.67,4,1,7,0.00
2013-9-29,88,76,58,48,44,38,61,35,18,30.02,29.97,4,1,7,0.00
2013-9-30,84,66,50,57,50,41,74,57,32,30.07,29.90,3,0,6,0.00
2013-10-1,84,69,54,60,53,47,78,59,35,29.97,29.84,3,0,6,0.00
2013-10-2,82,67,54,54,50,45,79,57,33,29.97,29.84,5,1,8,0.00
2013-10-3,75,60,47,47,44,40,79,57,35,29.99,29.88,4,1,6,0.00
2013-10-4,80,63,47,47,42,38,76,50,25,30.09,29.93,4,1,8,0.00
2013-10-5,84,64,47,47,42,38,73,48,21,30.19,30.09,4,1,6,0.00
2013-10-6,88,66,46,47,40,32,74,46,15,30.13,29.96,4,1,6,0.00
2013-10-7,86,66,52,46,42,38,67,45,19,29.97,29.82,3,1,5,0.00
2013-10-8,83,64,47,47,42,36,68,47,24,29.85,29.66,4,1,6,0.00
2013-10-9,61,57,51,49,45,42,74,64,56,29.77,29.63,0,0,0,0.00
2013-10-10,74,59,44,48,44,37,82,60,38,29.96,29.77,0,0,0,0.00
2013-10-11,78,61,45,49,44,38,80,57,32,30.03,29.90,3,0,5,0.00
2013-10-12,80,62,46,50,45,39,79,57,32,29.97,29.83,3,1,6,0.00
2013-10-13,74,60,48,50,46,41,80,62,40,30.03,29.84,4,1,6,0.00
2013-10-14,79,61,47,50,45,40,80,59,32,30.08,29.95,4,1,6,0.00
2013-10-15,80,62,46,49,44,39,78,55,26,30.01,29.91,3,1,5,0.00
2013-10-16,83,63,45,47,41,37,78,50,22,30.08,29.97,3,1,6,0.00
2013-10-17,82,63,46,47,42,37,74,50,24,30.05,29.91,4,1,6,0.00
2013-10-18,84,63,46,47,43,39,76,52,24,30.02,29.93,3,1,5,0.00
2013-10-19,85,64,46,48,43,38,74,51,24,30.05,29.94,4,1,5,0.00
2013-10-20,84,63,45,48,43,37,76,52,24,29.98,29.86,3,1,6,0.00
2013-10-21,84,64,46,50,44,38,77,53,25,29.95,29.84,3,0,5,0.00
2013-10-22,84,64,46,49,44,38,75,52,25,29.98,29.84,4,0,5,0.00
2013-10-23,83,64,48,51,45,39,75,54,28,29.91,29.82,2,0,4,0.00
2013-10-24,83,64,48,51,46,40,79,57,28,30.01,29.88,3,0,5,0.00
2013-10-25,80,62,48,53,46,41,78,60,33,30.12,30.01,3,1,5,0.00
2013-10-26,81,62,47,51,46,40,80,59,34,30.10,29.95,4,1,5,0.00
2013-10-27,81,63,47,53,47,41,80,58,31,29.98,29.64,4,1,7,0.00
2013-10-28,62,55,49,50,45,40,81,69,49,29.86,29.70,4,2,7,0.09
2013-10-29,66,54,44,48,43,39,85,68,43,29.99,29.87,4,1,6,0.01
2013-10-30,69,54,41,48,41,35,84,65,41,30.10,29.99,3,1,6,0.00
2013-10-31,71,55,41,48,42,35,81,64,41,30.15,30.03,3,1,5,0.00
2013-11-1,78,57,41,49,42,35,85,61,32,30.13,29.98,3,1,7,0.00
2013-11-2,77,58,43,49,43,36,82,61,33,30.01,29.83,3,1,5,0.00
2013-11-3,66,52,42,47,41,35,82,68,44,29.96,29.84,4,1,6,0.00
2013-11-4,64,52,42,41,37,33,75,58,34,30.02,29.84,4,1,6,0.00
2013-11-5,69,52,37,42,36,30,82,58,31,30.20,30.02,3,1,6,0.00
2013-11-6,73,53,37,42,36,30,80,56,26,30.25,30.14,4,1,5,0.00
2013-11-7,78,57,43,45,38,34,75,53,22,30.15,30.01,3,1,6,0.00
2013-11-8,74,55,40,45,38,32,75,55,29,30.04,29.91,3,1,5,0.00
2013-11-9,77,55,40,45,39,33,80,58,28,30.01,29.92,3,0,5,0.00
2013-11-10,79,56,38,44,38,31,81,53,22,30.07,29.96,2,0,6,0.00
2013-11-11,74,56,40,46,40,32,76,57,32,30.14,30.01,2,0,5,0.00
2013-11-12,65,57,50,50,45,41,78,64,53,30.24,30.10,3,1,4,0.00
2013-11-13,72,56,43,50,44,37,82,65,43,30.21,30.05,3,0,5,0.00
2013-11-14,75,57,42,48,43,36,82,62,35,30.07,29.78,3,0,4,0.00
2013-11-15,67,53,42,46,41,35,81,65,46,29.79,29.68,5,1,8,0.00
2013-11-16,68,53,41,46,41,35,84,66,41,29.88,29.72,3,1,5,0.00
2013-11-17,68,50,39,45,39,33,81,68,40,30.05,29.88,2,0,4,0.00
2013-11-18,68,53,41,46,40,34,81,65,43,30.12,29.99,3,0,5,0.00
2013-11-19,64,53,40,48,42,34,82,69,53,30.07,29.95,4,1,6,0.00
2013-11-20,68,58,51,52,49,44,86,74,52,29.96,29.79,6,1,8,0.51
2013-11-21,58,55,52,53,51,49,89,86,82,29.92,29.81,4,2,7,0.09
2013-11-22,58,53,49,51,49,45,90,85,75,29.98,29.90,2,1,4,0.02
2013-11-23,63,52,45,50,45,40,90,77,54,30.07,29.95,3,0,5,0.01
2013-11-24,65,51,40,51,43,36,89,74,47,30.21,30.06,4,1,5,0.01
2013-11-25,64,50,38,50,42,34,88,75,55,30.29,30.21,2,0,5,0.00
2013-11-26,64,51,40,50,43,35,88,76,56,30.23,30.04,3,0,5,0.00
2013-11-27,71,54,43,52,44,39,88,70,37,30.04,29.79,4,1,7,0.01
2013-11-28,68,53,44,49,43,38,84,71,43,30.02,29.81,3,1,5,0.00
2013-11-29,65,50,39,50,42,34,87,75,54,30.19,30.01,2,0,4,0.00
2013-11-30,68,51,38,50,41,34,88,71,43,30.23,30.13,3,0,5,0.01
2013-12-1,67,50,36,48,41,32,87,72,49,30.31,30.17,2,0,5,0.00
2013-12-2,67,51,39,50,42,34,89,74,54,30.21,29.89,3,0,5,0.00
2013-12-3,52,46,37,48,41,32,90,84,78,29.91,29.72,5,1,9,0.08
2013-12-4,50,39,32,35,30,26,86,72,48,30.02,29.84,3,1,6,0.00
2013-12-5,49,36,27,33,27,22,83,71,47,30.13,30.00,3,0,5,0.02
2013-12-6,50,38,27,33,28,22,83,68,46,30.18,30.05,2,0,5,0.01
2013-12-7,50,42,31,41,32,25,85,69,46,30.16,29.91,7,2,10,0.24
2013-12-8,47,35,27,34,27,23,84,73,51,30.27,30.16,3,0,5,0.01
2013-12-9,48,35,26,34,27,21,84,73,51,30.39,30.26,3,0,6,0.00
2013-12-10,52,37,26,35,28,22,84,70,47,30.38,30.18,4,0,6,0.01
2013-12-11,56,40,28,36,30,23,85,69,41,30.23,30.14,3,0,6,0.00
2013-12-12,59,41,29,39,31,24,84,69,44,30.23,30.13,2,0,4,0.01
2013-12-13,58,41,29,39,32,24,85,70,45,30.29,30.13,2,0,4,0.00
2013-12-14,60,41,29,41,32,24,86,70,42,30.36,30.26,3,0,5,0.00
2013-12-15,59,42,30,41,33,24,85,71,48,30.33,30.19,2,0,4,0.01
2013-12-16,62,44,33,42,35,28,86,71,48,30.22,30.09,3,0,5,0.00
2013-12-17,66,49,35,46,39,30,87,70,47,30.16,29.98,3,1,4,0.00
2013-12-18,64,52,46,48,43,40,81,73,55,29.98,29.66,5,1,9,0.00
2013-12-19,53,50,42,45,42,37,81,76,71,29.84,29.63,4,1,7,0.00
2013-12-20,55,46,36,38,35,28,87,69,46,29.95,29.70,4,1,6,0.00
2013-12-21,58,39,31,38,30,26,83,71,47,29.96,29.73,1,0,1,0.00